Reflectivity
-20 -20 -20 -19 40 30 -4 -20 -20 -14 -3 -20 -20 -20 16 14 28 15 13 -20 -20 -20 -20 -20 -20 -20 -20 -20 -20 -20 -20 -20 -20 -20 -20 -20 -20 -20 -20 -20 -20 -20 -20 -20 -20 -20 -20 -20 -20
-20 -20 -20 21 34 -7 -4 -19 -20 -20 -20 14 -16 14 -6 -4 -2 -20 -20 -20 -20 -20 -20 -20 -20 -20 -20 -15 -11 -20 -20 -20 -20 -20 -14 -20 -13 -20 -20 -20 -20 -20 -20 -20 -20 1 -20 -20 -20
-20 -20 -17 43 16 5 23 -20 -20 -20 -20 -20 -20 -5 6 -20 -20 -20 -20 -20 -20 -20 -20 -20 -20 -20 -20 13 -20 -20 -9 2 -20 -20 -15 -20 -20 -20 -20 -20 -20 -20 -20 -20 -17 -20 -20 -20 -20
-20 -20 -0 28 -1 10 -20 -20 -20 -15 -10 -20 -20 17 -15 -20 -20 -20 -20 -20 -20 -20 -20 -20 -20 -20 -18 22 4 -20 -20 -20 -20 -20 -16 -9 -20 -20 -20 -20 -20 -20 -20 -20 -20 -20 -20 -20 -20
-20 30 40 20 11 -20 -20 -20 -20 -2 -20 -20 -20 9 -20 -20 -20 -20 -20 -19 -20 -20 -20 -20 -20 -19 -2 -20 -5 -20 -20 -20 -20 -20 -20 -20 -20 -3 -20 -20 -20 -17 -20 -20 -20 -20 -20 -20 -20
-18 31 41 22 -12 -6 7 -20 -16 -17 -17 7 19 21 2 13 -12 -20 -20 -20 -20 -20 -20 -20 6 -6 -19 -20 -20 -20 -20 -20 -20 -12 -19 -12 -20 -20 -20 -19 -20 -20 -20 -20 -20 -20 -20 -20 -20
14 26 14 -1 15 16 -20 -20 -20 -4 39 16 -20 3 8 -7 -20 -20 -20 -20 -20 -20 -20 -20 -20 -20 -20 -20 11 -20 -20 -20 -20 -19 -20 -20 -20 -20 -20 -20 -20 -20 -20 -20 -20 -20 -20 -20 -20
16 16 24 12 -20 24 -20 -20 -20 7 13 8 -19 -20 31 -20 -20 -20 -20 -20 -20 -20 -20 -20 -20 -20 -11 -20 -18 -20 -20 -20 -20 -20 -20 -20 -20 -20 -20 -20 -20 -20 -20 -20 -20 -20 -20 -20 -20
-5 30 10 -14 -20 -19 -17 -20 4 -9 -1 33 12 -13 -20 -20 -20 -20 -17 -15 -20 -20 -19 -12 -20 -20 0 -6 -20 -20 -20 -20 -20 -20 -20 -20 -20 -20 -20 -20 -20 -20 -20 -20 -11 -20 -13 -20 35
3 15 -20 -20 -20 -20 -20 -20 6 -13 22 10 32 5 -20 -20 -20 -20 -20 -20 -20 -20 2 -4 -20 -6 -20 -20 -20 -20 -20 -20 -20 -20 -20 -20 5 -7 -20 -20 -20 -20 -20 -20 4 23 27 -7 8
-20 -20 -20 -20 -20 -20 -20 19 -15 33 4 6 13 -15 -20 -20 -20 -20 -20 -20 -19 13 -11 8 -20 -20 -20 -18 -20 -20 -20 -20 -20 -20 -20 23 -17 -20 -20 -20 -20 -20 -20 -20 -11 4 3 23 -20
-20 -20 -20 -20 -20 -20 -20 -20 -11 -15 -15 -14 -20 -20 -20 -20 -20 -20 -20 -20 -20 -3 -20 -20 5 -20 -20 -20 -6 -19 -20 -20 -20 -20 -20 -12 -20 -20 -20 -20 -20 -20 -20 -20 5 6 -17 -20 17
-20 -20 -20 -20 -20 -14 -20 -20 8 29 29 -3 -20 -20 -20 -20 -20 -20 -20 -20 -20 -20 -20 -20 -17 -20 -20 -20 -20 -20 -4 -20 -16 -20 -20 -20 -19 -17 -20 -20 -20 -20 -13 -15 25 22 -1 37 37
-20 -20 -20 -20 -20 -20 -20 -20 -15 11 34 -5 -20 -20 -20 -20 -20 -20 -20 -20 -20 -7 -20 -20 -20 -20 -20 -20 -20 -20 -20 -8 -5 6 -20 -20 -20 -20 -20 -20 -20 -20 25 15 14 5 23 33 27
-20 -20 -20 -20 -20 -20 -20 -20 3 -20 -18 -20 -20 -20 -20 -20 -20 -20 -20 -20 -20 5 -20 -15 -20 -20 -20 -20 -20 -20 -19 -20 -4 -15 -12 -20 -20 -20 -20 -20 -20 -20 24 -19 -15 -18 15 37 31
-20 -20 -13 -20 -20 -20 -20 -20 -20 -20 -20 -20 -17 -20 -20 -20 -20 -20 -20 -20 -20 -20 -20 -20 -11 -20 -20 -20 -20 -17 -20 -7 -20 -20 -20 -20 -20 -20 -20 -20 -20 -20 -17 -20 -19 15 -6 24 -2
-15 -20 -17 -20 -20 -20 -20 -20 -20 -20 -20 -20 28 -17 -20 -20 -20 -20 -20 -20 -20 -20 -20 -20 -20 -20 -20 -20 -20 -20 -20 -1 -20 -20 -20 -20 -20 -20 -20 -20 -20 4 10 22 22 1 -20 -20 20
7 -18 1 -20 -20 -20 -20 -20 -20 -20 -20 -20 -13 -20 -20 -20 -20 -9 -20 -20 -20 -20 -20 -20 -20 -20 -20 -20 -20 -20 -20 -20 -20 3 -19 -20 -20 -20 -20 -20 28 -20 -17 -13 -16 -20 -20 -20 -20
-20 -20 -20 -20 -20 -20 -20 -20 -20 -20 -20 -20 -20 -20 -20 -20 -20 -20 -20 -20 -20 -20 -20 -20 -20 -20 -20 -20 -20 1 -20 -18 -20 -20 -20 -20 -20 -20 -20 -20 -20 -20 -20 19 -15 -20 -20 -20 -20
-20 -20 -20 -20 -20 -20 -20 -20 -20 -20 -20 -20 -20 -20 -20 -20 -20 -20 -4 -20 -20 -20 -20 -20 -20 -20 -20 -20 -20 -20 -20 17 -20 -19 -19 -20 -15 -20 -20 -20 9 -20 -20 -20 -20 -20 -20 -20 -20
-20 -20 -20 -20 -20 -20 -20 -20 -20 -20 -20 -20 -20 -20 -20 -20 -20 -20 -20 -20 -20 -20 -20 -20 -20 -20 -20 -6 -20 -6 2 30 -20 -19 -12 -20 -20 -20 -20 -20 -9 -20 -20 -12 -17 -20 6 -20 -20
-20 -20 -20 -20 -20 -20 -20 -20 -20 -20 -20 -20 -20 -20 -20 -20 -20 -20 -20 -20 -20 -20 -20 -20 -20 -20 -20 -11 -20 -18 -20 -20 -20 -20 -20 -20 -20 -20 -20 -20 -20 -20 16 -20 -14 -20 -20 -20 -20
-20 -20 -20 -20 -20 -20 -20 -20 -20 -20 -20 -20 -20 -20 -20 -20 -20 -20 -20 -20 -20 -20 -20 -20 -20 -20 -20 -20 -17 -7 -16 -12 -20 -20 -12 -20 -20 -19 -20 -20 2 -20 -20 -20 -2 -8 16 -14 25
-20 -20 -20 -20 -20 -20 -20 -20 -20 -20 -20 -20 -20 -20 -20 -20 -20 -20 -20 -20 -20 -20 -20 -20 -20 -20 -20 -20 -20 -19 7 -17 17 -8 28 6 -1 -20 -20 -20 -6 5 -20 -11 -5 -13 33 -9 15
-20 -20 -20 -20 -20 -17 6 -20 -20 -20 -20 -20 -20 -20 -20 -20 -20 -20 -20 -20 -20 -20 -20 -20 -20 -20 -20 -20 -20 -20 -20 -17 3 -3 29 -19 -11 -4 -20 -20 -20 -20 -20 -20 -4 14 3 -20 -20
-20 -20 -20 -20 12 9 12 3 -20 -20 -20 -20 -20 -20 -20 -20 -20 -20 -20 -20 -20 -20 -20 -20 -20 -20 -20 -20 -20 -20 -20 -20 -20 -14 -16 15 -0 -20 -20 -20 -20 -20 -20 -20 -20 -15 -20 -20 -20
-20 -20 -20 -20 -20 -20 -20 -1 -19 -18 -20 -20 -20 -20 -20 -20 -20 -20 -20 -20 -20 -20 -20 -20 -20 -20 -20 -20 -20 -20 -20 -20 -20 -20 -20 -20 12 -20 -20 18 -19 22 21 -20 -20 -20 -4 -20 -16
-20 -20 -20 -20 -20 -20 -20 -16 14 19 -20 -20 -20 -20 -20 -20 -20 -20 -20 -20 -20 -20 -20 -20 -20 -20 -20 -20 -20 -20 -20 -20 -20 -3 -20 -20 -19 -20 -20 -13 -11 -20 -20 -20 -20 -20 -20 -20 -20
-20 -20 -20 -20 -20 -20 -20 6 -7 2 1 -12 -20 -20 -20 -20 -20 -20 -20 -20 -20 -20 -20 -20 -20 -20 -20 -20 -20 -20 -20 -15 -20 -20 -20 -20 -20 -20 -20 -20 -20 -20 3 -9 -13 10 -20 12 -20
9 -18 0 -20 -20 -20 -20 2 -0 5 10 -4 -20 -20 -20 -20 -20 -20 -20 -20 -20 -20 -20 -20 -20 -20 -20 -20 -20 -20 -20 -20 -20 -20 -20 -20 -20 -18 -19 -12 -16 -11 -12 -13 -8 -20 -20 -11 -20
Wind_Speed
12 13 9 9 6 6 2 10 9 13 11 14 14 14 11 9 3 6 17 18 24 21 18 16 15 16 14 13 14 14 14 13 12 12 11 10 9 8 7 6 5 5 5 5 5 6 6 6 6
12 15 6 6 0 4 3 11 13 12 8 10 18 15 15 3 14 22 19 21 23 20 18 17 15 15 15 13 13 14 12 12 11 11 12 11 9 8 7 6 4 3 4 5 5 7 6 6 6
12 11 8 6 2 4 5 10 11 8 5 10 8 9 14 12 21 16 22 23 23 19 18 17 15 15 14 14 12 12 12 11 10 11 10 10 9 8 7 5 3 3 4 5 6 7 5 5 4
9 7 6 3 4 6 7 9 10 12 8 13 8 12 13 9 14 18 23 23 22 21 20 17 16 15 14 13 12 12 12 11 11 9 9 9 9 8 7 5 5 5 5 7 7 6 4 3 3
12 8 7 11 9 6 9 7 11 8 9 14 13 11 16 9 24 24 21 15 20 17 20 16 15 13 12 12 11 12 11 12 10 9 10 10 8 7 7 7 7 7 7 7 6 5 3 3 4
1 7 3 7 2 9 4 5 13 5 5 9 13 7 9 5 18 20 18 16 21 20 19 14 13 13 11 11 11 11 10 10 10 9 8 9 8 8 8 8 9 8 7 6 5 4 3 4 4
13 4 9 8 4 11 1 11 5 12 22 2 17 11 7 12 17 19 18 9 23 20 16 12 12 11 11 10 10 9 10 10 9 10 9 9 8 9 9 9 9 9 7 6 4 3 4 4 5
7 3 9 8 9 4 3 10 6 14 5 21 20 9 3 18 19 22 17 16 18 15 14 13 11 10 8 8 10 9 9 10 10 10 10 9 10 10 10 10 9 8 6 6 6 6 6 9 9
8 3 8 3 9 6 2 6 3 19 24 19 15 19 22 21 21 21 14 20 15 9 6 8 15 11 8 9 8 9 9 10 10 9 10 8 8 10 12 9 11 9 9 9 9 8 8 10 12
1 8 6 4 10 2 7 4 17 8 5 3 10 22 19 20 18 23 16 17 16 11 9 5 11 9 8 9 9 7 8 8 7 7 8 6 4 7 10 10 10 10 11 11 11 1 9 15 6
2 5 7 12 10 5 4 11 21 14 7 13 15 18 18 20 14 21 22 16 15 13 9 10 4 9 8 8 7 5 5 6 4 5 6 8 7 4 6 6 6 6 11 6 9 8 6 13 10
5 1 4 6 5 11 2 2 15 18 4 18 18 15 15 19 15 19 16 17 17 13 14 9 11 9 9 6 5 4 4 4 4 7 6 3 3 5 4 6 8 7 5 8 7 1 10 10 12
9 5 5 6 11 5 9 10 5 24 36 4 15 13 13 15 18 20 16 14 13 16 13 15 12 7 3 3 6 4 4 3 4 6 7 4 5 3 1 2 2 3 2 3 9 7 8 11 17
8 7 10 5 6 12 7 11 4 15 34 10 13 13 13 16 21 21 18 16 13 14 15 13 13 11 6 3 8 3 3 3 6 5 5 6 4 2 3 2 4 4 9 12 8 7 7 13 10
6 12 14 8 2 6 10 9 1 16 16 16 14 9 12 7 23 20 20 18 14 10 12 10 9 14 9 5 5 4 3 5 1 2 6 3 4 3 4 4 5 5 9 10 1 8 6 13 4
13 17 14 10 2 3 9 3 5 4 4 12 16 12 9 9 22 19 19 20 17 15 12 11 9 15 11 5 5 5 4 3 7 3 7 5 4 5 4 5 4 3 1 8 5 4 4 8 8
14 11 9 10 7 1 7 10 10 9 11 7 8 15 13 12 7 18 20 17 20 14 13 10 8 12 13 7 5 5 3 3 3 1 6 6 5 7 5 4 2 2 3 3 1 4 5 3 5
9 5 9 4 3 3 8 12 9 8 10 7 12 15 14 16 17 11 23 20 21 17 12 12 11 9 10 8 6 4 4 2 3 4 2 7 5 7 5 2 6 2 6 7 4 5 4 5 5
14 9 10 10 11 3 9 13 13 14 11 13 9 15 16 16 18 18 14 22 19 20 18 13 10 10 8 7 6 2 3 3 3 3 7 7 5 5 5 3 6 1 4 5 2 3 6 7 4
11 12 13 11 12 6 12 14 18 15 12 15 14 12 18 16 22 19 15 15 19 17 16 13 12 12 10 7 7 5 5 3 3 3 5 7 5 4 6 2 5 6 4 5 6 2 3 3 4
11 12 13 13 12 14 18 20 20 15 17 9 16 15 16 18 23 20 17 15 20 20 17 13 12 12 11 11 7 4 4 3 1 3 4 6 6 6 5 2 4 4 2 4 7 5 3 2 4
13 14 13 8 10 12 15 12 17 13 14 13 11 16 14 17 20 21 20 17 15 20 19 18 16 14 12 10 7 8 8 7 6 6 5 4 8 7 7 5 5 3 3 1 5 5 5 4 4
15 12 12 12 12 14 17 11 16 12 8 9 9 11 15 18 19 23 22 18 17 17 19 18 17 15 13 13 9 8 7 7 6 4 7 6 8 8 8 7 6 4 4 5 3 7 12 5 5
10 16 12 14 13 13 20 15 12 11 12 9 13 9 13 17 18 24 22 20 15 15 15 14 16 15 14 13 13 10 10 9 6 7 6 6 7 8 9 9 6 5 5 5 2 7 16 4 4
9 11 10 12 12 10 1 3 5 13 9 7 9 11 12 13 17 21 21 19 16 17 17 15 17 16 16 15 14 13 12 11 8 6 5 5 6 7 9 9 7 6 6 6 2 8 6 2 4
11 12 11 16 12 4 11 8 3 2 4 6 9 8 12 13 17 19 21 19 18 17 17 17 18 17 17 16 15 14 14 8 7 6 5 6 8 8 5 9 9 9 7 6 5 4 2 5 4
12 13 17 16 16 14 12 11 8 10 7 9 4 2 12 12 15 17 19 18 18 17 18 17 17 18 17 17 14 13 13 13 10 12 10 7 6 5 7 14 10 8 7 7 6 5 4 5 3
9 12 12 8 9 11 10 10 7 7 6 7 6 6 11 11 15 16 16 17 18 17 16 17 17 18 17 16 15 13 13 13 11 8 11 10 9 6 6 9 11 10 8 7 7 7 6 5 4
11 11 10 13 12 12 7 3 0 8 6 4 6 3 14 13 14 14 14 16 17 17 17 17 16 18 17 16 15 15 14 14 12 10 12 10 9 7 6 10 12 11 9 10 8 9 6 2 4
14 12 13 8 10 11 12 9 4 2 9 4 5 5 2 15 15 15 15 15 16 17 16 18 17 17 17 15 13 15 13 13 14 13 11 11 9 6 8 6 6 7 9 10 8 5 7 5 6
Wind_Direction
255 241 236 262 37 297 294 51 77 74 37 46 35 97 109 126 280 143 124 135 127 130 132 133 129 122 116 115 111 115 127 124 130 129 137 135 130 125 119 112 107 85 72 76 97 105 96 94 97
271 263 258 84 7 17 2 79 66 47 47 59 73 96 101 145 131 126 119 133 128 135 140 134 130 126 123 119 120 121 125 124 126 129 140 145 143 140 135 129 113 80 86 98 107 103 99 104 91
263 261 263 140 127 217 48 52 88 98 50 61 36 84 74 100 121 137 135 139 135 140 132 127 129 127 129 124 122 122 126 130 130 138 138 141 144 150 152 143 133 134 128 118 112 104 98 95 104
247 223 31 60 213 171 79 65 58 69 305 83 75 38 79 80 118 124 147 144 138 136 124 132 132 129 131 123 121 124 123 125 129 131 137 145 157 164 162 154 156 154 149 135 119 111 111 112 117
245 33 71 288 300 46 56 94 80 45 284 94 83 135 80 82 113 128 148 133 125 109 124 133 132 133 129 119 123 124 131 130 129 128 137 136 144 154 151 159 156 158 149 134 131 123 137 164 169
263 98 354 296 271 70 45 113 115 177 303 81 98 45 350 109 117 137 132 139 126 125 127 134 138 136 129 126 125 129 140 131 135 136 123 133 134 138 150 156 163 150 150 149 154 157 180 210 198
223 122 203 255 320 348 125 123 165 83 41 93 128 115 243 144 130 145 131 139 120 120 126 144 148 136 129 135 128 137 139 137 140 132 136 138 141 146 152 155 160 165 165 175 192 199 232 236 231
74 63 317 172 86 275 359 34 356 72 127 327 128 151 108 135 150 125 136 128 119 123 142 146 144 146 151 150 139 145 144 144 143 145 151 156 161 166 165 170 173 174 180 201 225 240 256 264 250
118 125 275 359 113 227 91 113 291 64 47 324 353 143 162 149 156 135 132 105 111 125 128 159 144 148 186 135 145 149 157 154 155 158 173 180 193 185 164 179 167 186 204 218 231 244 266 283 275
135 166 338 55 16 163 75 343 86 66 102 183 249 113 133 158 162 138 123 131 128 143 151 193 138 152 181 152 152 169 167 171 188 182 173 214 255 191 165 165 185 201 221 231 241 324 322 278 276
38 7 11 338 18 0 283 4 93 124 137 232 220 121 146 157 170 150 149 157 138 153 164 164 153 154 184 151 168 177 175 163 175 154 200 174 199 185 171 164 197 209 223 232 214 181 239 226 235
284 32 345 318 311 293 324 144 153 174 145 175 200 126 156 164 155 157 171 157 160 176 169 160 164 183 192 170 135 182 125 157 165 179 229 231 212 222 232 169 195 204 203 215 209 349 231 242 238
254 27 303 312 291 324 314 311 65 27 341 13 107 136 159 139 150 163 161 165 168 157 173 173 173 182 191 271 142 138 165 180 221 179 196 200 258 214 329 314 314 216 178 318 100 227 242 36 345
12 302 289 290 312 308 344 315 211 125 215 176 137 151 164 169 163 155 170 172 159 180 171 192 172 170 157 183 132 156 161 177 174 194 207 160 258 206 185 219 257 253 81 319 275 206 166 81 300
309 266 260 189 292 294 328 358 307 167 199 139 159 184 144 162 155 169 168 168 162 185 180 176 197 156 158 138 142 163 199 153 263 174 121 176 274 211 332 252 246 252 155 202 71 307 82 136 180
238 244 262 132 222 96 290 278 159 149 168 167 164 165 149 149 161 167 168 172 177 186 174 173 218 153 159 180 171 190 208 147 199 165 146 197 255 261 238 281 263 320 266 46 32 313 278 160 176
232 261 160 199 178 327 280 307 294 174 173 226 180 162 160 157 178 164 176 183 164 173 169 181 191 165 160 185 175 196 229 166 171 313 150 181 223 252 261 302 257 80 7 122 144 305 306 307 187
331 252 326 341 275 277 315 290 313 272 183 218 174 164 165 166 171 185 177 179 173 176 178 189 172 151 158 166 170 199 199 152 177 186 188 178 204 245 234 246 283 311 58 341 133 228 314 305 301
295 327 296 286 280 296 291 286 279 274 208 188 224 174 173 179 165 172 212 168 169 174 172 189 156 152 152 152 180 193 221 177 194 205 153 179 221 228 254 274 329 273 103 258 12 334 318 308 15
315 294 277 281 266 299 274 291 279 261 253 202 187 211 177 185 161 165 188 188 171 170 177 176 169 157 162 171 186 192 206 202 190 191 175 169 218 244 254 161 273 295 71 22 322 7 304 325 325
253 269 289 297 315 304 275 261 259 282 208 242 184 197 190 184 162 164 175 202 175 172 180 176 167 167 181 169 182 198 194 209 167 202 177 178 184 235 261 258 252 308 64 136 261 254 277 306 291
279 277 278 320 301 281 314 303 273 250 174 185 212 202 196 183 167 164 173 198 189 170 176 180 177 175 179 188 190 177 189 202 204 181 193 193 189 214 235 244 264 227 300 314 249 354 325 314 331
280 303 314 307 279 284 274 262 280 161 185 181 191 233 197 181 178 162 173 186 193 171 179 175 176 173 181 193 199 184 195 209 208 175 185 203 191 199 221 222 239 231 247 262 8 54 344 304 314
279 273 274 269 256 259 254 240 275 159 141 160 174 198 207 184 177 160 168 174 191 179 172 170 174 180 185 188 185 184 193 227 215 214 179 210 181 196 211 229 219 226 245 272 75 144 215 283 317
251 256 257 242 231 252 247 176 236 135 162 183 188 188 182 190 173 161 164 168 182 177 175 176 173 184 186 189 190 188 198 210 209 208 167 187 219 199 201 212 207 212 227 259 266 202 210 200 295
222 253 267 296 310 313 292 281 190 206 92 127 234 225 180 194 169 167 163 168 175 175 176 177 175 182 187 191 200 195 197 209 200 183 188 203 222 229 155 202 215 212 204 228 250 254 209 241 225
252 254 252 282 292 283 281 256 354 179 169 221 8 311 155 185 160 162 164 166 170 175 178 181 175 181 189 194 196 193 201 209 207 187 190 208 246 232 176 197 208 214 206 212 250 243 227 243 228
254 281 271 240 261 265 264 62 42 46 74 54 268 183 154 174 155 161 170 169 168 179 177 181 176 182 186 195 195 197 198 202 221 172 191 201 222 219 195 179 203 208 215 204 206 248 223 226 232
190 223 235 273 292 302 281 102 143 347 312 292 262 230 168 165 161 163 167 170 169 178 179 182 183 179 186 196 192 197 197 198 203 218 191 198 218 199 200 189 193 202 204 212 207 232 257 284 245
278 295 290 251 244 248 280 298 45 220 316 245 252 176 308 161 165 165 169 172 176 178 188 183 186 184 184 188 197 192 192 199 194 209 203 185 206 216 197 192 194 212 205 208 197 214 262 240 197